Location: Unspecified
(0.0000°N, 0.0000°E)
Time: 01:24:07
(UTC+00:00)

Vanguard 2 Rocket - All Passes

Search period start: 27 May 2018 00:00
Search period end: 06 June 2018 00:00
Orbit: 553 x 3327 km, 32.9° (Epoch: 26 May)

Date Brightness Start Highest point End Pass type
(mag) Time Alt. Az. Time Alt. Az. Time Alt. Az.
27 May - 01:38:47 10° NW 01:46:36 61° NE 02:00:45 10° ESE visible
27 May - 03:52:02 10° WNW 04:02:49 50° SSW 04:20:19 10° SE visible
27 May - 06:10:58 10° WSW 06:23:30 25° SSW 06:38:38 10° SSE daylight
27 May - 08:35:50 10° SW 08:48:10 18° S 08:59:40 10° SE daylight
27 May - 10:57:11 10° SSW 11:11:36 27° SSE 11:22:01 10° ESE daylight
27 May - 13:15:29 10° SW 13:30:21 59° SSE 13:38:38 10° ENE daylight
27 May - 15:35:16 10° WSW 15:44:41 37° NW 15:50:24 10° NNE daylight
28 May - 00:40:29 10° NNW 00:46:50 37° NE 00:57:24 10° ESE visible
28 May - 02:52:13 10° WNW 03:01:29 65° SSW 03:17:55 10° SE visible
28 May - 05:08:50 10° WSW 05:20:29 30° SSW 05:36:19 10° SSE visible
28 May - 07:31:58 10° SW 07:44:02 19° S 07:56:30 10° SE daylight
28 May - 09:54:33 10° SSW 10:08:43 23° SSE 10:20:05 10° ESE daylight
28 May - 12:13:12 10° SW 12:29:12 45° SSE 12:38:53 10° E daylight
28 May - 14:32:19 10° WSW 14:45:08 64° NW 14:52:08 10° NE daylight
28 May - 23:42:58 10° N 23:47:23 19° NE 23:53:31 10° E night (unlit)
29 May - 01:53:02 10° NW 02:00:51 88° SW 02:15:24 10° SE visible
29 May - 04:07:42 10° W 04:18:07 36° SSW 04:33:59 10° SE visible
29 May - 06:28:31 10° SW 06:40:04 20° S 06:53:20 10° SSE daylight
29 May - 08:51:45 10° SSW 09:05:09 21° S 09:17:10 10° SE daylight
29 May - 11:10:54 10° SW 11:27:23 36° SSE 11:38:27 10° E daylight
29 May - 13:29:34 10° SW 13:45:00 87° SE 13:53:22 10° NE daylight
29 May - 15:51:33 10° W 15:58:44 22° NW 16:03:42 10° N daylight
30 May - 00:54:19 10° NW 01:00:53 61° NE 01:12:45 10° ESE visible
30 May - 03:07:23 10° W 03:16:28 44° SSW 03:31:42 10° SE visible
30 May - 05:25:51 10° WSW 05:36:38 23° SSW 05:50:21 10° SSE visible
30 May - 07:48:50 10° SW 08:01:08 19° S 08:13:25 10° SE daylight
30 May - 10:08:39 10° SSW 10:24:53 30° SSE 10:37:08 10° ESE daylight
30 May - 12:26:59 10° SW 12:44:11 65° SSE 12:54:04 10° ENE daylight
30 May - 14:47:36 10° WSW 14:59:10 40° NW 15:06:01 10° NNE daylight
30 May - 23:56:09 10° NNW 00:01:26 34° NE 00:09:57 10° ESE night (unlit)
31 May - 02:07:45 10° WNW 02:15:30 58° SSW 02:29:29 10° SE visible
31 May - 04:24:07 10° WSW 04:33:54 26° SSW 04:47:39 10° SSE visible
31 May - 06:45:57 10° SW 06:57:02 18° S 07:09:13 10° SE daylight
31 May - 09:06:29 10° SSW 09:21:44 25° SSE 09:34:46 10° ESE daylight
31 May - 11:24:35 10° SW 11:42:41 51° SSE 11:54:08 10° ENE daylight
31 May - 13:44:11 10° WSW 13:59:15 64° NW 14:07:38 10° NE daylight
31 May - 16:09:52 10° WNW 16:12:59 12° NW 16:15:39 10° NNW daylight
31 May - 22:58:50 10° N 23:02:13 16° NE 23:06:34 10° E night (unlit)
01 Jun - 01:08:38 10° WNW 01:15:12 82° SW 01:27:20 10° SE visible
01 Jun - 03:23:13 10° W 03:31:53 31° SSW 03:45:16 10° SE visible
01 Jun - 05:43:21 10° SW 05:53:15 18° S 06:05:09 10° SSE daylight
01 Jun - 08:04:23 10° SSW 08:18:03 22° SSE 08:31:11 10° ESE daylight
01 Jun - 10:22:25 10° SW 10:40:31 41° SSE 10:53:27 10° E daylight
01 Jun - 12:41:07 10° SW 12:58:45 89° NW 13:08:42 10° NE daylight
01 Jun - 15:03:54 10° W 15:13:13 25° NW 15:19:25 10° N daylight
02 Jun - 00:10:00 10° NW 00:15:31 62° NE 00:25:13 10° ESE night (unlit)
02 Jun - 02:23:02 10° W 02:30:35 38° SSW 02:43:10 10° SE visible
02 Jun - 04:41:16 10° SW 04:50:06 19° S 05:01:37 10° SSE visible
02 Jun - 07:02:25 10° SSW 07:14:05 19° S 07:26:31 10° SE daylight
02 Jun - 09:20:32 10° SSW 09:37:45 33° SSE 09:51:47 10° E daylight
02 Jun - 11:38:27 10° SW 11:57:33 71° SSE 12:09:13 10° ENE daylight
02 Jun - 13:59:31 10° WSW 14:13:18 42° NW 14:21:30 10° NNE daylight
02 Jun - 23:11:51 10° NNW 23:16:17 32° NE 23:23:01 10° ESE night (unlit)
03 Jun - 01:23:28 10° WNW 01:29:55 50° SSW 01:41:21 10° SE visible
03 Jun - 03:39:50 10° WSW 03:47:43 21° SSW 03:58:46 10° SSE visible
03 Jun - 06:00:33 10° SSW 06:10:11 17° S 06:21:18 10° SE daylight
03 Jun - 08:18:55 10° SSW 08:34:29 27° SSE 08:48:54 10° ESE daylight
03 Jun - 10:36:10 10° SW 10:55:40 55° SSE 11:09:02 10° ENE daylight
03 Jun - 12:55:47 10° WSW 13:12:57 63° NW 13:22:55 10° NE daylight
03 Jun - 15:21:46 10° WNW 15:27:32 15° NW 15:32:01 10° N daylight
03 Jun - 22:14:40 10° N 22:17:11 14° NE 22:20:10 10° ENE night (unlit)
04 Jun - 00:24:21 10° WNW 00:29:54 74° SSW 00:39:43 10° SE night (unlit)
04 Jun - 02:39:05 10° WSW 02:46:04 25° SSW 02:56:33 10° SSE visible
04 Jun - 04:58:49 10° SW 05:06:44 16° S 05:16:24 10° SSE visible
04 Jun - 07:17:37 10° SSW 07:30:51 22° SSE 07:44:37 10° ESE daylight
04 Jun - 09:34:18 10° SW 09:53:14 44° SSE 10:08:02 10° E daylight
04 Jun - 11:52:38 10° SW 12:12:01 86° NW 12:23:47 10° NE daylight
04 Jun - 14:15:51 10° W 14:27:23 28° NW 14:34:59 10° NNE daylight
04 Jun - 23:25:42 10° NW 23:30:26 65° NE 23:38:14 10° ESE night (unlit)
05 Jun - 01:38:57 10° W 01:45:05 30° SSW 01:54:53 10° SE visible
05 Jun - 03:57:17 10° SW 04:03:57 16° S 04:12:27 10° SSE visible
05 Jun - 06:16:35 10° SSW 06:27:07 18° SSE 06:39:02 10° SE daylight
05 Jun - 08:32:54 10° SSW 08:50:19 35° SSE 09:05:55 10° E daylight
05 Jun - 10:50:05 10° SW 11:10:24 75° SE 11:24:01 10° ENE daylight
05 Jun - 13:11:10 10° WSW 13:27:01 44° NW 13:36:46 10° NNE daylight
05 Jun - 22:27:30 10° NNW 22:31:20 30° NE 22:36:40 10° E night (unlit)
